Location: ?p Thanh B�nh
(16.5833°N, 107.5333°E)
Time: 05:22:11
(UTC+00:00)

Cosmos-2242 - Pass Details

Date: 29 October 2020
Orbit: 592 x 616 km, 82.5° (Epoch: 27 November)

Event Time Altitude Azimuth Distance (km) Brightness Sun altitude
Rises 12:10:30 0° 199° (SSW) 2,813 6.8 -26.7°
Reaches altitude 10° 12:12:48 10° 207° (SSW) 1,914 6.0 -27.3°
Maximum altitude 12:16:44 38° 276° (W) 910 4.3 -28.2°
Enters shadow 12:18:10 29° 318° (NW) 1,101 4.6 -28.6°
